Lobo

Go HERE for most recent data if this page is not up to date.

Jump to table bottom
Date/Time Temp deg F RH % 24 Hr Snow (in) Snow Depth (in) H2O (in)
07/19 03:00 59.3 42 "NAN" -0.4 0.00
07/19 02:00 59.1 45 "NAN" -0.5 0.00
07/19 01:00 60.5 47 "NAN" -0.4 0.00
07/19 00:00 61.7 41 "NAN" -0.5 0.00
07/18 23:00 62.2 38 "NAN" -0.6 0.00
07/18 22:00 62.0 39 "NAN" -0.6 0.00
07/18 21:00 62.3 42 "NAN" -0.4 0.00
07/18 20:00 63.4 40 "NAN" -0.7 0.00
07/18 19:00 63.6 40 "NAN" -0.4 0.00
07/18 18:00 66.6 38 "NAN" -0.1 0.00
07/18 17:00 65.9 42 "NAN" 0.3 0.00
07/18 16:00 65.0 36 "NAN" -0.1 0.00
07/18 15:00 65.8 33 "NAN" -0.0 0.00
07/18 14:00 68.9 28 "NAN" -0.2 0.00
07/18 13:00 70.5 28 "NAN" -0.0 0.00
07/18 12:00 69.1 30 "NAN" -0.3 0.00
07/18 11:00 65.9 35 "NAN" -0.3 0.00
07/18 10:00 63.5 44 "NAN" 0.0 0.00
07/18 09:00 63.6 43 "NAN" 0.0 0.00
07/18 08:00 61.3 33 "NAN" -0.5 0.00
07/18 07:00 60.3 35 "NAN" -0.8 0.00
07/18 06:00 57.9 36 "NAN" -0.8 0.00
07/18 05:00 57.6 36 "NAN" -0.6 0.00
07/18 04:00 58.9 34 "NAN" -0.4 0.00
07/18 03:00 56.8 43 "NAN" -0.8 0.00
07/18 02:00 57.4 43 "NAN" -0.9 0.00
07/18 01:00 58.3 46 "NAN" -0.9 0.00
07/18 00:00 58.6 42 "NAN" -0.8 0.00
.